Starlink 33802

operational
NORAD ID: 64392 Int'l Des: 2025-127 Owner: SPXS Country: US Constellation: starlink
LEOCIRCULAR

Starlink 33802について

説明を読み込み中...

リアルタイム位置

3D地球を読み込み中...

次回通過

高度履歴

Altitude vs Time

uPlot chart will show altitude changes over time

軌道要素

1 64392U 25127Y 26062.48064921 .00028769 00000-0 10500-2 0 9991
2 64392 43.0046 215.1850 0002554 280.0913 79.9650 15.27607716 41568
Epoch: Mar 3, 2026 • Age: 21 hours

現在のステータス

高度 488.4 km
速度 7.62 km/s
衛星直下点 -27.23°S, 66.57°E
打ち上げ日 Jun 13, 2025
運用期間 0.7 years
タイプ internet

技術仕様

分類 Payload
質量 575.00 kg
乾燥質量 530.00 kg
総質量 575.00 kg
長さ 0.30 m
直径 4.10 m
スパン 29.00 m
形状 Box + pan
製造者 SPXS
バスタイプ Starlink V2MO
フェーズステータス In Orbit
所有者/国 SPXS/US

大規模コンステレーション

Loading constellations...